, FL

(GMT )
Crestview

Weather History for KEGI - May, 2013

Change the Weather History Date:

Wednesday, May 22, 2013

  Actual Average Record
Temperature  
Mean Temperature 73 °F -  
Max Temperature 85 °F - - ()
Min Temperature 62 °F - - ()
Cooling Degree Days 8    
Growing Degree Days 23 (Base 50)    
Moisture  
Dew Point 66 °F    
Average Humidity 88    
Maximum Humidity 100    
Minimum Humidity 54    
Precipitation  
Precipitation 0.66 in - - ()
Sea Level Pressure  
Sea Level Pressure 29.96 in    
Wind  
Wind Speed 3 mph (NE)    
Max Wind Speed 22 mph    
Max Gust Speed 38 mph    
Visibility 6 miles    
Events Fog , Rain , Thunderstorm    
Averages and records for this station are not official NWS values.
T = Trace of Precipitation, MM = Missing Value Source: NWS Daily Summary

Daily Weather History Graph

Daily Weather History Graph

Search for Another Location

Airport or City:

Trip Planner

Search our weather history database for the weather conditions in past years. The results will help you decide how hot, cold, wet, or windy it might be!

Date:

Astronomy

May. 22, 2013 Rise Set
Actual Time 5:47 AM CDT 7:38 PM CDT
Civil Twilight 5:20 AM CDT 8:05 PM CDT
Nautical Twilight 4:48 AM CDT 8:37 PM CDT
Astronomical Twilight 4:14 AM CDT 9:12 PM CDT
Moon 5:08 PM CDT (5/22) 3:39 AM CDT (5/22)
Length of Visible Light 14h 44m
Length of Day
13h 51m
Waxing Gibbous, 91% of the Moon is Illuminated
May 22
Waxing Gibbous
May 24
Full
May 31
Last Quarter
Jun 8
New
Jun 16
First Quarter

Hourly Weather History & Observations

Time (CDT) Temp. Heat Index Dew Point Humidity Pressure Visibility Wind Dir Wind Speed Gust Speed Precip Events Conditions
12:48 AM 66.2 °F - 66.2 °F 100% 29.97 in 10.0 mi SE 2.3 mph - N/A   Mostly Cloudy
12:53 AM 66.2 °F - 66.2 °F 100% 29.97 in 10.0 mi ESE 3.5 mph - N/A   Scattered Clouds
12:58 AM 66.4 °F - 65.5 °F 97% 29.98 in 10.0 mi ESE 3.5 mph - N/A   Scattered Clouds
1:58 AM 66.6 °F - 66.0 °F 98% 29.94 in 10.0 mi Calm Calm - N/A   Clear
2:58 AM 65.1 °F - 64.8 °F 99% 29.94 in 10.0 mi NE 1.2 mph - N/A   Clear
3:48 AM 62.6 °F - 62.6 °F 100% 29.93 in 2.0 mi Calm Calm - N/A   Clear
3:53 AM 64.4 °F - 62.6 °F 94% 29.93 in 0.5 mi NE 1.2 mph - N/A Fog Fog
3:58 AM 63.5 °F - 63.1 °F 99% 29.94 in 0.2 mi NE 3.5 mph - N/A Fog Fog
4:08 AM 62.6 °F - 62.6 °F 100% 29.93 in 0.5 mi ENE 2.3 mph - N/A Fog Fog
4:23 AM 62.6 °F - 62.6 °F 100% 29.94 in 0.2 mi Calm Calm - N/A Fog Fog
4:28 AM 62.6 °F - 62.6 °F 100% 29.93 in 0.5 mi Calm Calm - N/A Fog Fog
4:33 AM 64.4 °F - 62.6 °F 94% 29.93 in 0.8 mi NNE 2.3 mph - N/A   Clear
4:38 AM 62.6 °F - 62.6 °F 100% 29.94 in 0.5 mi NE 2.3 mph - N/A Fog Fog
4:48 AM 64.4 °F - 64.4 °F 100% 29.93 in 1.2 mi Calm Calm - N/A   Clear
4:53 AM 64.4 °F - 64.4 °F 100% 29.93 in 4.0 mi Calm Calm - N/A   Clear
4:58 AM 64.4 °F - 64.2 °F 99% 29.94 in 6.0 mi Calm Calm - N/A   Clear
5:08 AM 62.6 °F - 62.6 °F 100% 29.94 in 2.5 mi NNE 1.2 mph - N/A   Clear
5:13 AM 62.6 °F - 62.6 °F 100% 29.94 in 1.5 mi North 3.5 mph - N/A   Clear
5:18 AM 62.6 °F - 62.6 °F 100% 29.95 in 1.2 mi North 2.3 mph - N/A   Clear
5:23 AM 62.6 °F - 62.6 °F 100% 29.95 in 1.2 mi Variable 3.5 mph - N/A   Clear
5:28 AM 62.6 °F - 62.6 °F 100% 29.95 in 1.5 mi NNE 3.5 mph - N/A   Clear
5:29 AM 62.6 °F - 62.6 °F 100% 29.95 in 1.8 mi NNE 3.5 mph - N/A   Partly Cloudy
5:34 AM 62.6 °F - 62.6 °F 100% 29.95 in 1.0 mi North 3.5 mph - N/A   Mist
5:39 AM 62.6 °F - 62.6 °F 100% 29.96 in 0.5 mi NNW 3.5 mph - N/A Fog Fog
5:44 AM 62.6 °F - 62.6 °F 100% 29.96 in 0.2 mi North 2.3 mph - N/A Fog Fog
5:58 AM 62.4 °F - 62.2 °F 99% 29.96 in 0.2 mi Calm Calm - N/A Fog Fog
6:58 AM 65.1 °F - 64.9 °F 99% 29.99 in 0.2 mi NE 2.3 mph - N/A Fog Fog
7:18 AM 66.2 °F - 66.2 °F 100% 29.97 in 0.5 mi ENE 4.6 mph - N/A Fog Fog
7:23 AM 66.2 °F - 66.2 °F 100% 29.97 in 0.8 mi ENE 3.5 mph - N/A   Mist
7:28 AM 68.0 °F - 68.0 °F 100% 29.97 in 1.0 mi Variable 1.2 mph - N/A   Mist
7:33 AM 68.0 °F - 68.0 °F 100% 29.98 in 1.8 mi NE 1.2 mph - N/A   Mostly Cloudy
7:38 AM 68.0 °F - 68.0 °F 100% 29.98 in 4.0 mi Variable 1.2 mph - N/A   Mostly Cloudy
7:48 AM 69.8 °F - 69.8 °F 100% 29.98 in 10.0 mi North 2.3 mph - N/A   Scattered Clouds
7:58 AM 70.0 °F - 70.0 °F 100% 29.99 in 10.0 mi Calm Calm - N/A   Scattered Clouds
8:55 AM 75.4 °F - 75.0 °F 99% 29.99 in 10.0 mi Variable 4.6 mph - N/A   Scattered Clouds
9:55 AM 80.4 °F 83.0 °F 67.5 °F 65% 30.00 in 10.0 mi WNW 4.6 mph - N/A   Scattered Clouds
10:55 AM 83.1 °F 85.4 °F 66.4 °F 57% 30.01 in 10.0 mi Variable 5.8 mph - N/A   Mostly Cloudy
11:55 AM 84.6 °F 86.8 °F 66.0 °F 54% 29.99 in 10.0 mi WNW 8.1 mph - N/A   Mostly Cloudy
12:22 PM 82.4 °F 84.6 °F 66.2 °F 58% 29.99 in 7.0 mi West 11.5 mph 20.7 mph N/A   Mostly Cloudy
12:28 PM 77.0 °F - 68.0 °F 74% 30.01 in 0.2 mi West 21.9 mph 29.9 mph N/A   Overcast
12:39 PM 73.4 °F - 64.4 °F 73% 29.99 in 7.0 mi ENE 19.6 mph 38.0 mph N/A Rain , Thunderstorm Light Thunderstorms and Rain
12:55 PM 72.9 °F - 64.2 °F 74% 29.98 in 10.0 mi WSW 2.3 mph - 0.66 in Thunderstorm Thunderstorm
1:10 PM 78.8 °F - 66.2 °F 65% 29.98 in 10.0 mi South 1.2 mph - N/A   Drizzle
1:13 PM 78.8 °F - 66.2 °F 65% 29.97 in 7.0 mi Calm Calm - N/A Rain Light Rain
1:22 PM 80.6 °F 82.7 °F 66.2 °F 61% 29.96 in 10.0 mi ESE 3.5 mph - N/A   Mostly Cloudy
1:31 PM 80.6 °F 83.9 °F 69.8 °F 70% 29.95 in 7.0 mi SE 4.6 mph - N/A   Mostly Cloudy
1:55 PM 82.6 °F 86.8 °F 70.5 °F 67% 29.95 in 7.0 mi SE 6.9 mph - 0.00 in   Mostly Cloudy
2:55 PM 83.8 °F 87.5 °F 69.1 °F 61% 29.93 in 10.0 mi South 11.5 mph - N/A   Mostly Cloudy
3:56 PM 83.8 °F 86.7 °F 67.5 °F 58% 29.90 in 10.0 mi South 5.8 mph - N/A   Mostly Cloudy
4:55 PM 82.4 °F 84.8 °F 66.7 °F 59% 29.89 in 10.0 mi South 9.2 mph - N/A   Mostly Cloudy
5:55 PM 81.0 °F 83.8 °F 68.4 °F 65% 29.91 in 10.0 mi SW 8.1 mph - N/A   Mostly Cloudy
6:55 PM 79.7 °F - 69.3 °F 70% 29.91 in 10.0 mi WSW 6.9 mph - N/A   Mostly Cloudy
7:55 PM 77.7 °F - 69.6 °F 76% 29.94 in 10.0 mi SW 5.8 mph - N/A   Mostly Cloudy
8:05 PM 77.0 °F - 69.8 °F 78% 29.94 in 10.0 mi SW 4.6 mph - N/A   Mostly Cloudy
8:55 PM 75.7 °F - 69.6 °F 81% 29.95 in 10.0 mi SW 5.8 mph - N/A   Mostly Cloudy
9:55 PM 74.5 °F - 70.5 °F 87% 29.97 in 10.0 mi SW 5.8 mph - N/A   Mostly Cloudy
10:55 PM 74.3 °F - 70.9 °F 89% 29.97 in 10.0 mi SW 5.8 mph - N/A   Mostly Cloudy
11:55 PM 73.6 °F - 71.2 °F 92% 29.96 in 10.0 mi WSW 4.6 mph - N/A   Mostly Cloudy